Theta_e
313 313 313 314 313 314 314 314 314 314 314 314 314 314 314 314 315 315 314 314 315 314 315 315 314 314 314 314 314 314 314 307 305 303 302 306 311 315 322 321 326 325 322 312 307 301 297 299 300 301 300 300 299 300 301 302 298 296 290 285 285 284 286 288 290 291 293 292 295 295 293 295 293 296 312 315 321 323 324 324 326 328 328 330 331 334 335 336
313 313 313 313 313 313 313 313 313 313 314 314 314 314 314 314 314 314 314 314 315 315 315 315 314 314 314 314 314 314 310 305 302 303 303 313 322 320 320 323 328 329 320 305 301 298 297 297 299 300 298 299 299 299 300 297 299 292 287 286 287 286 289 291 293 293 294 295 294 294 293 296 296 296 299 311 313 317 320 321 323 323 326 330 331 332 332 334
313 313 313 313 313 313 313 313 313 313 313 314 314 314 314 314 314 314 314 314 315 314 314 314 314 314 314 314 314 314 308 303 303 302 308 320 320 322 322 323 326 329 308 303 302 298 297 298 297 298 297 296 295 297 298 296 297 292 290 286 286 289 290 292 294 294 294 295 295 294 295 294 295 297 298 308 309 317 317 318 319 321 322 326 328 330 331 332
312 312 313 313 313 313 313 313 313 313 313 314 314 313 314 314 314 314 314 314 314 314 314 314 314 314 314 314 314 310 305 301 300 307 312 325 324 322 324 324 325 329 310 301 301 299 298 298 298 297 296 296 294 297 295 294 294 291 291 288 288 290 292 294 295 296 296 295 294 294 293 294 295 296 298 303 307 304 312 321 321 321 323 325 328 328 330 330
312 312 313 313 312 313 313 313 313 313 313 313 313 313 314 314 314 314 314 314 314 314 314 314 313 313 313 313 313 308 301 294 303 309 313 327 327 324 324 326 328 322 309 301 299 298 298 296 296 297 296 291 292 295 292 293 295 292 291 291 292 292 292 296 295 295 295 295 294 293 292 294 296 296 296 301 301 298 312 322 324 325 326 326 327 328 329 329
312 312 312 312 312 313 313 313 313 313 313 313 313 313 313 314 314 314 314 314 314 314 313 313 313 313 313 313 309 305 300 290 304 308 330 329 329 327 325 329 332 313 301 299 298 297 297 297 295 294 293 293 292 291 291 293 297 290 290 291 292 293 293 294 296 296 294 294 294 293 295 296 293 295 293 294 294 295 303 324 327 327 328 329 329 329 328 328
311 311 312 312 312 312 313 312 313 313 313 313 313 313 313 314 314 314 314 314 314 314 313 313 313 313 313 312 305 304 298 299 307 310 333 333 332 328 327 329 328 304 300 298 297 296 296 297 296 294 293 291 290 291 295 295 295 293 289 291 294 294 293 296 296 296 293 294 294 293 295 295 294 293 297 309 319 315 325 329 328 328 329 329 327 327 327 327
311 311 311 312 312 312 312 312 312 313 313 313 313 313 313 314 313 314 314 314 313 313 313 313 313 313 313 304 303 298 298 299 307 316 336 333 330 329 327 315 306 301 298 297 295 295 296 296 296 296 295 291 290 293 293 293 293 291 290 292 293 294 294 295 295 294 293 292 294 294 294 295 294 294 309 314 321 325 327 329 328 328 328 327 326 326 326 326
311 311 311 312 312 312 312 312 312 313 313 312 312 313 313 313 313 313 313 313 313 313 313 313 312 313 312 304 300 294 293 308 312 320 323 319 318 318 314 309 302 300 297 296 296 296 298 295 297 297 292 292 292 293 291 292 287 291 293 294 292 293 294 294 293 293 293 294 293 293 291 293 293 298 311 316 324 326 328 328 327 327 326 326 325 326 326 325
311 311 311 311 311 311 311 311 312 313 313 312 313 313 313 313 312 312 313 313 313 312 313 313 313 313 305 302 299 289 298 311 320 320 315 314 307 306 305 303 301 299 298 296 297 299 298 298 300 300 297 295 294 292 292 291 288 290 292 292 293 294 294 294 293 294 292 292 291 293 291 291 293 302 304 320 325 327 327 326 326 326 325 325 325 325 323 320
311 311 311 311 312 312 311 312 312 312 312 312 313 313 313 312 312 312 313 313 312 312 312 312 313 310 302 303 295 290 303 310 316 314 313 311 306 303 303 300 301 299 298 296 298 301 302 302 303 302 300 295 296 292 293 292 293 295 294 293 292 292 291 292 291 292 292 294 291 294 291 291 292 295 307 321 326 327 325 325 325 325 325 325 324 322 321 320
311 311 311 311 311 311 311 312 312 312 312 313 313 313 312 311 311 312 312 312 312 312 312 312 313 309 303 299 296 297 307 308 315 312 312 308 305 305 304 301 300 300 298 297 298 300 302 302 303 300 293 298 291 294 292 293 296 294 295 291 290 289 291 291 292 292 292 293 291 291 293 290 290 290 308 325 327 327 325 324 324 324 324 323 322 321 320 319
311 311 311 311 311 311 311 311 312 312 312 312 312 312 312 312 312 312 312 312 312 312 313 312 312 309 301 292 298 309 310 310 311 311 310 307 302 304 303 301 300 299 299 299 300 302 303 302 303 299 299 298 293 292 295 297 295 295 292 290 289 286 287 290 291 293 293 294 292 294 285 284 286 288 319 326 326 326 324 323 324 323 322 321 321 319 318 319
311 311 311 311 311 311 311 311 311 311 311 311 311 311 311 312 312 312 312 312 313 313 313 313 309 305 300 294 303 311 312 310 309 309 307 307 302 301 301 301 301 300 302 300 301 302 303 301 302 301 298 295 293 296 295 292 292 291 290 288 285 283 283 289 293 293 293 293 292 295 286 286 287 300 322 326 327 324 322 323 323 322 322 321 319 318 317 318
311 311 311 311 311 311 311 311 311 311 311 311 311 311 312 312 312 312 312 312 312 312 311 313 309 303 297 301 310 313 325 311 305 304 307 303 299 299 299 300 300 301 301 302 302 303 303 300 299 296 292 297 296 294 288 287 286 286 287 281 282 284 285 289 292 293 291 293 293 293 286 287 290 309 322 326 326 324 322 323 323 323 322 321 318 317 317 316
311 310 311 310 310 310 311 311 311 311 311 311 310 310 310 311 311 312 312 311 312 312 310 305 306 304 296 294 303 319 310 306 307 309 305 305 300 300 300 299 301 301 302 302 304 304 302 302 296 293 294 294 289 283 282 285 283 284 285 281 283 284 284 288 291 292 294 293 293 293 284 287 293 309 321 325 325 324 322 322 323 323 321 320 317 316 316 316
311 311 310 310 310 310 311 311 311 310 310 310 310 310 310 310 311 311 312 312 312 313 308 304 307 305 291 302 310 304 303 305 306 306 304 303 302 300 301 300 300 300 301 301 301 301 298 297 296 295 293 291 287 286 284 278 279 280 284 285 285 286 285 285 289 291 291 292 289 290 288 287 290 307 319 323 324 321 320 322 322 322 321 321 318 316 315 316
310 310 310 310 310 310 310 311 311 311 311 310 310 309 308 310 310 310 309 310 310 310 308 309 304 297 294 302 295 300 306 301 304 304 305 305 303 302 301 300 299 298 299 297 296 297 296 293 292 287 287 286 289 283 280 279 281 282 281 283 286 286 286 287 286 289 292 290 290 288 288 288 289 309 316 321 322 320 320 320 322 322 321 320 318 316 315 316
310 310 310 310 310 309 310 310 310 311 311 310 310 310 311 310 308 307 305 305 300 292 288 293 292 285 288 295 300 301 305 304 304 303 301 303 303 302 302 300 298 297 294 292 291 294 293 293 290 286 285 284 285 286 284 285 286 286 286 285 286 286 286 286 290 293 293 290 287 287 288 286 297 308 313 315 316 314 315 316 320 321 321 320 319 317 316 316
310 310 310 310 310 310 309 310 310 310 311 306 303 303 304 302 300 302 304 305 299 300 301 298 299 296 298 299 300 302 308 306 301 300 301 303 302 300 299 299 296 294 292 289 290 295 294 287 284 283 283 286 288 289 290 290 288 289 289 288 286 286 287 289 290 292 293 288 287 286 289 290 298 307 310 311 309 309 310 314 316 318 319 319 317 316 316 316
310 309 309 309 309 310 309 309 310 311 311 304 303 302 294 297 291 291 300 302 304 304 302 302 301 299 299 302 304 303 300 300 301 299 301 305 298 299 294 295 292 291 288 290 292 297 295 286 285 287 289 290 291 291 291 292 292 290 288 287 284 286 285 290 291 294 295 291 288 287 288 290 298 302 302 306 307 308 310 312 314 315 317 317 317 315 315 316
309 310 309 309 309 310 310 309 310 311 309 303 302 301 302 302 302 306 301 293 300 305 305 304 304 301 304 304 306 306 305 299 300 300 302 303 298 295 292 292 288 288 289 291 290 288 285 284 288 290 292 293 293 293 293 292 292 290 287 285 285 283 286 289 290 294 296 289 287 288 289 289 292 295 301 306 307 308 312 314 315 315 314 315 315 315 314 315
309 309 309 309 309 309 310 310 310 309 306 302 299 303 300 303 308 306 305 297 296 302 303 303 301 302 303 307 307 307 299 297 296 298 299 301 295 296 292 290 289 289 292 291 287 284 284 284 291 293 292 292 291 293 292 290 289 288 285 285 284 283 286 283 288 292 295 293 290 289 288 289 290 292 295 306 308 308 310 312 313 316 315 314 314 315 314 314
308 309 309 309 309 309 310 310 308 304 301 301 301 302 307 307 306 306 301 294 294 299 303 305 304 302 302 301 307 305 300 298 297 296 302 299 295 293 293 289 288 289 287 288 288 286 286 288 292 293 292 292 291 292 292 289 287 287 289 286 284 287 286 286 287 291 292 293 291 288 285 286 288 291 294 298 299 306 307 310 309 311 313 314 314 313 314 315
308 308 308 309 309 309 309 308 298 300 303 301 302 306 307 308 307 305 299 295 293 295 305 304 306 304 305 310 308 304 301 300 299 299 301 300 295 293 292 293 290 286 288 288 288 287 288 292 294 293 292 292 291 289 289 290 284 283 287 289 288 288 289 289 289 288 283 282 290 288 278 282 284 287 291 295 301 303 305 307 308 311 311 312 312 312 312 312
308 308 308 308 309 308 308 298 298 304 302 298 300 304 304 302 305 305 297 288 286 293 300 296 307 300 309 302 304 302 301 296 301 302 302 301 303 296 296 291 292 287 287 288 288 286 288 292 294 292 291 291 290 288 289 291 283 284 287 290 290 290 290 290 288 285 282 282 290 291 282 278 281 290 290 291 298 302 302 305 307 307 308 310 312 312 311 312
308 308 308 308 308 308 294 294 303 302 294 293 299 302 306 306 311 306 297 282 280 294 295 300 300 298 306 301 303 300 289 291 301 301 302 304 300 300 292 288 292 293 291 290 287 285 294 292 292 293 292 290 288 286 290 290 285 285 288 290 291 290 291 291 288 286 283 286 290 287 283 281 281 284 289 290 294 298 300 301 303 307 307 309 311 312 311 312
308 308 308 308 308 306 298 298 299 297 296 297 304 306 308 308 308 302 289 274 276 297 296 295 300 306 304 301 303 298 295 300 295 298 303 302 301 297 295 289 290 290 293 290 282 287 291 290 292 291 290 287 287 287 291 290 287 286 291 291 290 291 290 289 287 285 286 286 283 282 288 283 279 282 289 291 292 294 299 301 302 305 307 307 310 312 311 313
308 308 308 308 307 307 301 300 300 297 301 304 306 307 309 307 301 293 280 274 288 293 305 297 307 302 299 299 299 300 298 298 293 297 301 302 301 296 291 291 290 289 291 291 285 288 293 292 292 292 288 287 288 289 292 292 290 291 292 291 290 291 290 288 284 286 283 281 278 283 286 282 278 280 285 287 288 291 296 301 303 304 306 308 310 312 312 312
308 308 307 307 304 303 303 304 300 303 305 306 306 306 308 301 293 284 278 272 293 288 297 298 297 294 296 292 293 297 295 296 298 298 300 297 299 299 297 295 292 292 291 291 290 290 293 297 299 293 291 290 291 291 292 293 292 293 291 291 286 285 285 285 283 282 280 276 277 282 286 283 278 279 284 286 290 289 289 291 295 299 303 307 308 312 312 312
307 307 307 307 297 299 301 294 298 304 305 306 306 304 298 293 281 275 273 280 295 294 298 295 292 296 293 291 289 293 294 295 295 295 293 297 295 294 295 292 293 287 283 283 287 289 290 290 294 292 298 293 293 291 291 290 290 291 289 284 285 285 281 279 277 279 273 271 276 282 285 284 280 279 284 287 290 291 292 292 295 297 301 305 307 311 312 312
307 307 307 303 302 303 293 290 295 301 300 305 308 298 291 282 283 278 276 298 285 290 291 291 294 293 293 293 292 291 290 293 294 293 289 290 289 289 288 285 287 282 281 281 284 288 288 288 288 291 299 294 290 289 287 287 286 288 286 284 280 277 273 277 275 277 274 275 284 284 285 283 281 281 288 291 292 293 292 293 294 298 301 305 308 311 311 311
306 306 307 306 307 301 301 300 300 301 302 308 302 292 283 275 273 280 284 289 282 295 292 297 294 294 293 291 289 292 294 290 292 292 292 291 290 291 291 290 288 287 280 281 282 283 284 286 289 290 292 295 292 286 282 286 283 286 285 279 278 274 269 268 269 271 276 280 283 283 285 282 281 287 290 292 295 296 300 300 300 302 303 306 309 309 309 309
306 306 301 303 304 304 304 303 303 301 304 304 295 289 281 274 275 296 287 289 288 296 296 294 294 293 293 289 289 293 289 292 292 291 292 289 289 286 288 290 290 291 287 282 282 279 276 280 286 288 288 292 290 287 286 283 283 283 284 286 282 276 275 271 274 271 274 277 280 284 282 279 278 285 293 295 298 303 304 305 305 305 305 306 307 309 309 310
305 304 301 299 302 304 304 305 303 306 302 299 291 281 277 276 278 282 286 289 290 293 291 295 292 291 289 290 291 294 293 290 293 290 289 289 285 285 286 287 290 289 286 282 283 280 283 278 286 290 294 292 290 291 289 285 285 286 285 285 282 280 278 279 276 278 278 278 277 282 279 280 286 291 294 295 301 303 305 305 306 305 306 307 307 307 308 309
302 297 300 298 301 303 304 305 303 303 301 297 289 281 277 280 278 288 287 294 293 290 291 291 291 288 287 287 291 293 297 291 293 292 291 289 289 288 290 290 290 292 286 283 281 281 281 282 287 289 291 290 290 292 291 288 282 284 285 282 282 285 284 276 277 280 274 275 275 273 281 283 285 289 292 295 299 299 302 304 305 305 306 306 306 307 308 308
296 299 296 299 304 307 305 305 305 303 301 293 285 280 283 287 289 293 296 294 294 293 287 283 284 288 286 287 288 290 293 293 291 290 286 291 288 290 291 290 293 291 292 288 282 282 281 279 285 287 288 292 292 292 291 290 288 284 281 281 288 290 287 281 274 273 269 270 271 278 276 279 278 279 288 291 294 295 298 300 302 303 305 305 306 307 308 309
296 296 301 302 304 308 306 305 304 303 298 292 283 288 289 289 296 296 297 295 293 291 287 284 283 289 286 288 286 290 292 289 287 289 286 291 287 297 292 290 294 292 293 291 287 287 285 281 283 287 288 290 291 290 290 290 290 287 284 287 285 277 281 279 278 270 271 270 270 277 277 281 280 281 285 289 292 295 297 298 301 303 305 306 306 307 308 309
296 297 292 298 304 307 305 305 306 303 295 290 281 285 292 293 298 297 298 297 294 291 286 285 284 286 288 286 292 292 291 287 289 286 286 288 286 293 293 294 291 292 292 292 289 285 283 280 280 285 288 289 288 286 279 285 288 287 288 286 286 281 278 278 275 277 277 268 269 274 276 276 286 284 288 288 290 296 297 298 298 300 303 304 304 306 305 304
294 288 287 298 305 308 307 306 303 298 290 284 282 287 293 292 296 298 298 297 292 290 287 287 288 284 286 287 290 288 291 289 287 286 287 291 291 298 292 294 291 292 292 293 288 288 282 282 277 283 287 287 283 284 284 282 282 282 282 279 283 283 283 282 282 280 277 268 264 269 271 279 281 286 290 290 291 296 300 299 300 301 302 304 304 303 304 304
295 289 289 300 309 309 307 302 296 293 287 287 290 290 293 293 295 295 297 298 295 297 293 290 289 285 285 285 286 290 289 293 291 288 289 289 288 283 293 292 292 290 290 289 288 285 281 281 280 279 283 281 284 288 289 287 284 284 282 283 281 279 281 278 274 281 278 276 269 268 269 276 283 293 294 292 292 295 300 302 302 304 304 303 304 303 303 303
292 284 290 303 306 307 301 292 290 290 287 288 288 293 292 302 295 294 294 294 294 291 293 291 290 289 287 286 285 287 288 289 290 289 290 286 290 288 291 293 293 292 288 285 287 290 286 281 279 281 283 285 287 290 290 289 289 288 286 285 284 281 278 275 272 277 278 280 279 277 275 276 285 290 292 293 294 297 299 301 301 302 303 305 305 304 303 303
289 290 301 303 305 306 294 286 288 289 289 289 295 294 296 296 294 294 292 293 291 292 291 290 290 289 290 289 289 287 289 286 289 286 290 291 291 291 292 294 295 294 289 285 288 288 302 277 278 279 281 284 289 290 289 289 286 284 284 284 284 282 284 280 275 277 277 278 279 275 273 276 284 291 292 294 296 298 297 301 302 301 302 302 304 304 305 306
291 292 296 304 305 304 292 284 285 284 288 293 293 292 295 295 292 291 290 291 291 289 290 291 289 290 289 289 288 286 289 282 290 290 287 290 292 296 294 293 296 293 293 289 287 289 283 281 279 274 275 279 281 285 286 287 285 281 282 282 284 285 283 282 281 279 277 278 277 275 271 275 288 292 295 296 298 298 298 300 302 302 301 302 303 302 303 304
291 294 296 299 301 301 290 289 287 283 288 290 289 290 291 292 292 293 292 290 292 290 289 288 291 291 289 290 289 290 291 287 285 291 290 291 292 294 293 295 295 293 299 300 300 293 282 281 277 273 272 271 272 273 274 278 281 281 283 282 283 284 283 281 279 275 274 279 278 272 271 278 284 289 290 294 295 295 297 298 299 301 302 302 302 303 303 304
289 281 288 291 292 294 292 297 294 290 285 285 282 286 290 287 291 293 292 291 292 291 289 289 290 291 288 288 287 287 288 291 287 287 287 288 290 292 291 297 298 297 306 308 301 293 283 283 279 277 274 275 277 279 283 284 281 281 284 283 282 282 282 281 277 272 274 275 275 279 282 281 285 284 286 287 290 295 297 296 299 299 299 301 301 302 303 303
290 285 282 283 291 293 290 294 292 292 286 290 282 288 285 287 289 291 294 288 292 290 289 288 287 286 285 286 284 285 286 286 288 286 286 287 290 291 292 293 293 298 307 300 299 286 282 280 283 281 281 280 281 283 285 285 282 282 281 283 282 281 280 278 276 279 279 277 275 280 281 281 282 283 285 287 288 288 291 295 297 297 297 298 297 297 301 298
284 283 289 291 288 284 286 287 291 291 291 290 286 289 286 286 287 284 290 292 292 291 285 287 287 286 286 286 285 280 283 283 284 280 285 286 287 289 289 291 290 294 297 290 293 287 283 280 284 284 283 284 284 285 285 285 284 283 282 281 281 281 281 282 280 282 280 274 275 281 281 280 282 284 285 286 287 288 289 290 292 294 295 295 296 296 296 296
286 285 289 293 286 291 292 291 291 289 287 290 285 288 285 286 285 288 288 288 289 288 287 278 283 285 285 286 283 281 283 279 280 283 283 283 284 284 284 286 289 290 290 289 290 288 284 280 286 284 284 284 284 285 286 285 284 284 284 284 283 282 281 281 280 280 280 279 279 281 281 280 283 283 285 287 288 289 290 292 293 292 293 295 295 295 296 295
283 283 283 288 290 290 290 289 289 288 285 289 282 285 286 286 286 288 289 287 281 286 289 283 283 285 285 285 284 280 283 285 286 282 287 284 282 284 283 285 284 287 288 288 290 289 285 281 288 284 280 283 284 284 285 285 285 283 284 284 283 283 282 280 281 281 282 281 280 281 281 280 284 285 286 288 288 290 291 290 290 291 293 293 292 292 293 295
287 288 289 284 282 286 290 289 288 287 284 285 283 285 287 286 286 289 288 290 288 286 287 284 285 285 285 285 284 284 286 286 287 288 289 287 282 288 283 283 286 284 285 285 287 287 285 282 283 280 277 281 283 281 282 284 284 283 282 283 283 281 279 281 279 280 278 279 280 281 279 277 284 285 286 287 288 287 287 288 290 291 292 293 292 293 293 294
289 289 290 284 280 286 284 289 288 287 283 286 287 285 285 285 288 289 283 289 290 290 290 287 286 284 283 284 284 285 287 287 287 288 289 291 291 289 288 287 287 285 283 283 285 284 280 281 279 276 275 274 279 281 280 279 280 278 276 281 283 282 282 282 282 283 282 280 276 275 278 282 284 286 285 285 286 286 286 287 288 290 291 293 293 293 294 295
Wind_Speed
13 13 13 13 13 13 12 13 13 13 13 12 13 12 12 11 11 11 10 11 11 10 11 11 11 12 12 12 13 14 9 7 10 5 2 14 10 13 8 10 2 7 7 1 0 1 2 1 2 2 1 1 1 1 1 2 2 2 1 3 3 4 2 4 2 3 2 3 7 8 4 6 4 6 1 4 10 7 7 7 2 10 10 8 6 14 13 12
14 13 13 13 13 13 13 12 12 12 12 12 12 12 12 12 12 11 11 11 11 11 12 12 12 12 12 12 12 12 9 5 9 9 18 8 10 12 13 11 7 9 9 3 4 2 1 2 2 1 2 0 1 1 1 1 2 3 1 2 8 3 5 3 2 3 1 8 5 5 5 1 1 1 0 3 0 2 8 5 4 10 10 12 13 14 14 15
14 14 14 14 13 13 13 13 12 12 12 12 12 12 12 12 12 12 11 11 11 11 11 11 11 11 11 11 11 9 8 5 5 9 13 15 18 12 14 14 9 9 7 4 4 5 3 3 1 2 1 1 1 2 0 1 3 3 5 5 6 4 4 3 3 5 5 5 7 7 6 1 4 1 1 3 2 3 8 7 3 8 11 12 12 12 12 10
14 14 14 14 13 13 13 13 12 13 13 13 13 12 12 12 12 12 11 11 11 11 11 11 11 11 12 12 10 5 3 4 2 3 4 3 15 16 13 13 9 8 4 1 6 4 3 2 2 2 1 1 2 0 1 3 2 2 2 5 3 3 2 6 6 9 9 4 4 4 5 7 5 2 1 4 3 1 2 5 10 11 15 13 13 13 11 10
15 14 14 14 14 14 14 13 13 13 12 12 12 12 12 12 12 11 11 11 11 11 11 11 11 11 11 11 9 3 3 1 0 2 2 2 11 17 14 11 9 6 5 3 5 3 3 3 1 1 2 0 1 1 2 2 2 2 6 4 5 0 2 10 7 7 4 3 2 5 4 5 2 1 2 5 2 4 7 8 3 16 17 18 16 14 12 12
15 14 15 15 14 14 14 13 13 13 13 12 12 12 12 12 11 11 11 11 11 10 11 11 11 10 11 11 4 1 0 1 2 3 2 1 10 14 15 9 10 6 3 3 3 2 4 1 2 1 1 1 1 3 3 3 1 3 4 3 5 5 4 5 4 3 3 2 2 2 3 0 3 4 2 5 5 3 6 3 10 17 19 18 17 17 14 15
15 15 15 14 14 14 14 14 13 13 13 12 12 12 12 12 12 11 11 10 10 10 10 10 10 10 10 7 0 1 1 7 3 9 5 5 7 13 12 10 9 6 4 2 1 2 1 3 3 2 2 0 3 3 6 1 1 4 6 1 7 5 8 10 9 9 3 3 6 3 2 3 2 5 1 1 4 3 2 12 10 9 11 14 15 14 17 16
15 15 15 14 14 14 14 14 14 13 13 12 12 12 12 11 11 11 11 10 10 10 9 9 9 9 7 3 1 1 1 7 12 4 4 9 9 11 12 6 7 5 5 6 5 3 4 4 4 2 0 3 2 6 2 2 1 5 4 4 5 4 7 10 9 9 5 6 7 2 3 7 7 3 2 2 2 2 11 14 13 13 13 11 11 13 11 9
15 15 14 14 14 14 14 14 14 14 13 11 12 12 12 11 11 10 11 10 10 9 9 8 8 7 4 2 1 2 5 8 4 3 7 8 8 11 13 5 5 8 4 3 4 6 5 4 1 3 2 1 2 1 3 0 4 5 10 3 4 5 6 7 6 7 8 3 3 1 6 8 9 2 3 4 2 3 10 13 14 14 13 13 12 10 8 7
15 15 14 14 14 14 14 14 14 13 12 12 12 12 12 11 11 10 10 10 9 8 8 7 8 5 3 1 0 1 4 2 3 7 7 9 9 9 5 6 8 6 4 4 4 5 6 4 5 4 1 3 2 4 0 5 4 3 3 3 6 9 7 6 6 8 5 5 4 4 3 5 2 7 1 0 5 8 10 12 12 14 14 11 8 7 9 10
16 15 15 14 14 14 14 14 14 13 12 12 12 12 12 11 11 11 10 9 9 8 7 6 6 4 1 0 2 5 6 3 1 4 8 9 10 9 6 7 8 6 5 4 7 6 2 4 2 1 1 3 1 3 1 3 1 4 4 4 6 7 5 7 4 7 2 3 6 6 4 3 1 1 6 7 7 9 14 11 11 11 11 9 10 10 10 10
17 16 15 15 14 14 14 14 13 13 12 12 13 12 11 11 10 10 9 8 8 7 6 4 3 1 0 1 4 8 3 2 3 3 6 9 5 9 8 8 9 8 8 5 5 5 7 3 4 2 2 2 1 2 3 3 0 4 1 4 7 7 4 3 5 4 6 3 3 4 0 2 1 3 5 10 9 9 13 12 11 10 9 9 10 10 7 8
17 17 16 15 15 14 14 14 13 13 12 12 12 12 11 10 10 10 8 8 6 6 5 3 2 0 0 3 11 10 5 0 4 4 2 2 1 1 4 6 9 6 8 4 5 7 8 4 2 1 3 1 2 2 1 1 3 2 1 1 6 6 5 5 2 1 4 2 6 4 6 8 6 5 6 9 11 8 8 11 9 8 8 8 9 9 10 9
17 17 16 16 15 14 14 13 13 13 12 12 12 12 12 11 11 10 9 8 7 6 6 6 1 1 1 6 6 3 8 3 3 3 3 3 0 1 3 3 4 3 2 5 5 1 2 3 4 4 0 3 3 3 4 4 3 1 2 3 1 3 4 2 0 1 0 3 5 4 5 9 2 4 8 10 14 15 12 10 10 9 9 8 10 9 10 10
18 17 17 16 16 14 14 13 12 12 12 12 12 12 11 10 10 9 9 8 7 6 5 3 1 1 0 8 7 10 10 2 4 5 6 6 4 3 4 3 5 7 6 4 2 1 3 4 2 0 3 2 1 1 4 3 4 2 2 3 4 1 7 9 4 4 4 2 4 6 4 7 5 9 10 11 11 14 13 12 10 11 10 10 11 10 10 9
18 18 17 17 16 16 14 13 12 12 12 12 12 12 11 11 9 8 8 6 4 4 2 1 4 2 1 7 3 0 4 3 5 11 5 7 5 3 5 7 1 3 2 4 5 4 2 2 3 5 3 1 3 3 4 6 3 4 1 2 4 0 5 8 2 4 10 5 1 8 4 1 2 7 10 10 12 11 13 12 10 11 11 10 11 9 9 10
19 18 17 17 17 15 15 13 12 12 12 11 12 11 11 10 8 5 4 3 2 3 2 1 2 3 1 4 3 3 2 4 2 3 3 4 6 4 4 3 2 2 1 5 2 1 2 2 2 1 5 2 2 4 1 4 4 3 1 1 3 2 3 4 8 4 5 5 3 4 3 3 1 6 7 8 10 10 11 12 10 10 8 8 9 9 9 10
19 18 18 17 17 16 15 13 12 12 12 11 9 10 7 5 3 5 0 1 1 2 3 3 2 1 10 3 3 0 1 4 3 6 9 4 7 2 2 1 1 1 0 1 1 1 1 1 3 4 2 2 1 3 4 3 4 0 2 3 6 1 3 7 4 4 1 3 6 2 5 1 1 8 11 12 9 10 11 12 14 11 9 9 8 9 11 11
19 19 18 17 17 16 16 14 12 12 11 9 11 7 1 2 1 1 0 2 2 0 1 1 2 2 2 1 4 6 3 5 1 7 4 3 3 2 0 2 3 1 1 1 3 1 1 1 4 2 3 1 2 6 8 8 4 3 2 3 2 4 5 4 6 3 3 1 3 5 7 3 2 8 7 5 4 4 3 2 5 7 8 9 9 9 11 11
19 19 18 18 17 16 15 14 11 11 10 5 4 1 1 0 0 0 0 1 5 7 8 6 8 3 10 9 6 3 4 1 4 5 3 4 5 4 0 1 1 3 2 3 1 1 1 1 5 5 7 7 5 8 9 4 3 1 1 1 6 6 7 5 4 4 1 4 1 4 1 5 6 10 8 7 6 4 4 6 7 8 9 9 9 9 10 11
19 20 19 19 17 16 15 14 12 7 5 1 3 0 2 0 2 3 3 9 8 9 9 7 14 12 11 2 0 4 4 3 1 2 5 3 4 6 2 3 1 1 3 3 3 1 2 1 7 9 10 10 3 1 2 1 1 3 3 2 5 4 4 5 3 3 3 1 3 2 5 5 8 6 7 5 6 8 9 9 9 11 9 10 11 10 9 8
21 19 20 19 18 17 16 14 12 8 3 2 1 2 1 3 2 1 1 6 5 14 12 16 6 8 7 9 3 3 2 2 7 5 1 7 3 5 2 3 3 6 1 2 2 1 1 6 10 11 6 1 2 2 2 3 2 0 3 3 0 5 4 9 3 5 5 3 1 0 6 2 1 2 6 12 11 7 9 14 16 14 11 10 10 10 9 8
21 21 20 20 18 18 17 14 9 3 1 0 2 1 3 5 1 2 1 3 10 4 11 10 5 11 12 6 3 7 4 4 5 3 3 5 2 7 4 3 4 2 1 3 5 1 3 7 12 1 4 3 1 3 2 1 2 3 3 0 3 3 2 5 5 6 8 3 1 1 7 1 4 1 3 5 10 5 8 6 5 11 14 13 14 14 13 12
22 22 21 20 20 19 17 15 6 1 3 5 2 6 4 2 2 3 2 3 6 5 6 7 9 4 8 4 4 9 6 3 3 5 2 6 8 4 3 4 2 1 4 4 5 7 8 8 4 4 4 4 4 1 2 1 5 2 3 1 1 2 2 3 4 3 3 2 4 5 7 2 5 4 3 6 2 2 3 5 4 3 4 4 2 5 9 14
22 22 21 21 20 21 20 14 2 3 3 1 5 9 9 5 4 5 1 4 2 5 3 1 5 4 5 3 4 5 3 1 7 3 4 8 4 3 4 2 2 4 3 3 3 2 9 10 1 3 2 2 4 4 5 5 5 3 5 6 5 3 4 2 3 2 6 1 5 2 2 1 3 4 6 4 0 1 3 7 9 9 6 6 9 10 6 4
20 21 22 21 21 22 19 1 1 2 2 5 6 5 2 3 2 3 3 2 5 5 3 2 3 3 4 2 4 3 3 3 7 6 7 7 6 5 1 1 3 4 3 4 4 3 6 3 2 5 5 2 4 5 4 6 5 0 5 6 5 3 2 0 2 4 1 2 2 2 3 3 5 1 1 2 6 7 2 8 6 3 4 5 8 7 8 8
23 22 21 20 18 18 5 1 1 4 3 3 2 5 7 2 0 1 3 3 2 3 2 0 2 1 2 3 5 4 1 7 1 4 4 3 7 1 5 5 1 0 3 2 3 4 0 4 3 0 1 3 2 4 4 9 6 5 2 5 4 5 2 1 4 2 1 1 3 7 3 2 1 1 1 4 5 6 5 5 4 7 6 7 6 6 6 8
21 21 21 19 16 10 3 3 6 1 6 3 6 8 8 4 1 3 4 2 1 1 1 1 2 1 0 0 8 6 5 0 3 3 8 4 5 1 4 5 7 6 2 2 3 5 1 4 0 1 2 3 6 6 5 7 5 3 3 5 5 4 4 4 4 2 0 1 4 5 3 1 1 3 3 2 4 3 8 9 8 7 8 7 7 7 8 8
23 22 20 18 17 13 3 3 2 5 4 4 7 8 7 3 4 5 3 1 3 1 2 1 5 1 0 1 4 6 3 1 1 1 3 2 3 5 4 6 5 4 1 4 7 3 2 5 4 3 4 5 5 4 10 9 2 5 6 5 4 5 5 3 2 4 2 4 2 1 1 1 5 6 4 2 1 4 8 11 13 12 12 10 9 7 5 5
23 23 20 16 11 0 2 3 7 8 4 9 9 8 3 2 2 2 1 3 1 0 1 1 1 2 3 3 3 5 5 2 2 1 1 4 5 1 1 3 4 1 3 2 1 8 4 5 6 4 5 6 5 3 5 9 6 3 4 2 3 7 3 3 6 2 5 1 3 2 2 3 2 4 2 2 1 1 5 5 5 4 4 5 5 6 7 8
25 23 18 13 3 3 2 4 10 8 6 5 7 5 2 8 2 2 1 5 2 3 0 1 2 3 3 4 4 3 4 1 1 3 2 2 1 1 1 3 5 4 3 3 3 5 5 3 0 3 1 2 2 2 2 1 1 3 1 2 3 1 7 4 4 5 4 2 3 3 1 1 2 3 5 5 6 5 8 9 10 11 11 8 6 6 5 5
23 22 18 8 6 1 3 5 1 2 2 5 4 4 3 4 3 3 5 3 1 2 3 3 1 0 2 2 3 3 5 2 2 2 5 5 5 5 4 6 4 1 2 2 6 3 3 4 2 7 3 6 2 2 2 3 4 5 6 6 4 2 3 2 3 1 2 4 1 0 3 2 3 2 6 10 7 5 4 7 6 10 7 7 8 8 6 4
23 20 23 12 9 6 9 11 4 6 7 5 3 4 3 4 3 5 4 3 1 2 3 2 3 3 3 1 3 2 1 4 3 4 5 0 7 8 2 3 4 6 4 3 2 1 5 4 5 5 4 1 5 5 1 2 2 5 4 4 4 1 1 2 1 0 2 4 5 1 0 1 2 3 2 5 6 4 3 2 4 2 9 13 10 7 5 4
23 21 11 4 8 12 6 2 5 3 1 3 2 5 6 3 4 5 4 3 4 2 3 2 9 5 1 2 2 1 1 2 5 3 4 4 5 4 4 2 3 1 2 2 3 5 1 1 5 1 1 2 4 6 9 4 4 4 2 9 7 7 4 3 4 4 6 6 2 3 2 3 3 2 5 4 3 4 5 7 7 9 8 6 7 7 7 7
25 16 8 5 5 10 13 7 4 4 1 4 5 4 5 6 2 2 2 2 2 2 4 5 4 3 5 1 2 1 4 3 4 3 4 6 4 3 5 6 3 5 2 4 2 2 3 5 5 5 1 2 4 1 4 5 3 1 2 6 6 4 7 1 3 2 2 1 1 0 1 3 5 2 3 2 3 8 6 10 12 11 9 10 9 7 6 7
15 5 3 4 3 5 10 9 5 4 5 6 5 2 6 6 2 2 1 3 1 2 6 6 0 2 4 2 3 4 6 2 2 3 1 4 3 6 2 2 6 10 6 7 4 2 2 2 2 8 2 1 1 2 2 4 3 3 3 3 4 2 9 5 2 1 4 5 2 0 1 1 5 5 7 7 6 7 6 7 10 10 10 12 9 9 10 7
6 7 3 3 3 3 7 9 9 6 5 6 5 5 6 3 6 1 2 1 0 2 3 4 4 0 1 3 2 3 1 3 2 2 2 0 1 1 0 2 5 4 7 9 2 4 7 4 3 2 2 1 0 1 4 3 3 5 2 5 2 3 6 6 3 3 3 3 3 2 2 0 3 3 4 7 4 3 4 4 4 4 11 9 8 12 10 6
6 3 5 4 6 5 9 11 11 5 6 6 6 5 2 2 2 3 1 4 3 3 0 1 5 4 3 1 2 1 1 3 4 1 3 2 1 0 1 1 1 5 10 1 5 2 4 0 1 1 3 5 5 4 6 4 2 2 3 2 3 0 1 3 6 0 1 1 1 1 1 1 2 2 2 3 4 2 2 3 4 5 5 7 5 8 6 9
3 2 3 3 3 9 8 13 8 7 6 4 4 1 4 4 2 1 3 2 2 2 1 5 3 2 3 3 2 2 2 1 1 1 1 3 1 1 1 2 1 4 3 2 1 0 2 4 4 3 1 2 4 5 1 5 6 2 3 1 1 3 2 3 4 4 7 2 2 3 4 1 2 2 3 4 5 5 5 4 4 4 4 2 3 3 4 3
3 2 2 5 2 5 9 7 6 6 5 7 5 3 2 1 3 3 3 1 2 1 3 1 3 3 1 6 6 6 1 3 1 4 3 2 1 1 2 2 0 2 6 3 3 1 1 1 3 2 3 2 2 1 2 3 1 4 7 4 2 3 1 4 1 1 4 5 4 3 1 2 5 4 2 4 5 5 10 7 5 5 4 3 3 2 3 4
2 1 1 3 3 5 4 4 5 5 4 1 2 2 0 1 1 1 3 4 2 4 6 3 3 2 3 1 3 1 1 2 0 2 2 1 2 1 1 1 2 4 3 5 6 1 3 1 6 2 5 3 2 3 1 0 2 3 4 2 3 1 4 4 3 1 2 5 4 5 4 5 8 2 1 1 4 4 4 10 9 9 9 3 2 3 3 4
2 3 3 6 6 2 1 6 0 0 2 4 3 3 1 3 1 3 2 3 6 4 3 3 5 5 3 4 4 3 3 4 3 3 2 5 2 3 2 3 6 1 2 1 0 1 2 3 5 2 2 3 1 2 3 1 6 6 6 3 4 3 5 4 5 4 2 1 5 4 6 5 5 2 2 1 1 2 3 4 7 4 5 8 6 3 2 3
3 2 5 6 10 1 4 3 2 1 3 3 2 2 1 1 2 2 2 1 2 3 1 2 2 2 2 1 1 2 1 2 2 3 2 1 5 4 6 7 6 6 3 2 1 1 5 2 3 2 4 5 3 4 2 2 2 5 5 2 3 4 1 4 2 5 6 1 1 1 1 3 3 5 3 1 4 4 2 1 8 4 3 2 4 3 5 4
1 2 5 8 12 0 4 2 0 2 4 3 1 3 2 3 2 2 3 1 0 3 0 1 5 3 1 3 3 1 2 2 2 3 1 2 0 6 5 5 5 1 3 2 1 3 1 1 4 2 3 2 3 5 4 5 7 3 2 3 1 1 3 1 3 0 5 3 5 7 4 3 1 6 5 4 6 5 3 2 5 10 3 4 4 3 3 3
2 1 2 8 12 7 5 2 4 2 3 3 3 2 2 1 4 6 3 2 3 2 1 3 1 5 2 1 3 1 7 2 2 3 1 2 2 4 7 8 6 3 1 3 3 1 2 1 2 2 5 4 3 2 4 1 1 1 1 4 4 6 4 2 0 3 3 1 4 4 2 5 4 6 8 5 5 5 2 4 2 4 9 7 5 6 6 6
3 2 5 6 8 8 4 1 1 2 2 1 0 2 1 2 3 5 5 4 3 3 5 2 2 4 3 4 6 8 8 9 5 0 4 4 4 4 5 8 9 2 2 8 3 5 2 1 3 4 5 6 3 3 2 2 3 4 2 3 3 2 2 6 5 4 2 3 2 2 5 5 2 8 8 8 5 1 6 4 7 6 4 5 5 5 4 3
1 5 2 6 5 6 5 7 9 5 2 2 2 2 5 3 2 3 9 3 6 2 3 10 5 4 3 3 3 5 4 3 8 5 7 3 3 2 7 7 6 11 9 4 4 5 3 4 2 4 5 3 2 2 1 3 5 1 2 1 2 2 1 4 2 1 3 8 1 1 1 5 1 4 5 7 7 6 5 2 3 3 3 4 3 3 3 3
5 2 2 1 2 4 8 9 12 8 11 5 3 2 3 6 9 2 5 4 1 5 3 5 12 7 3 1 2 4 5 3 6 4 6 4 4 8 3 5 5 7 4 1 2 4 4 2 1 3 4 5 3 4 3 6 4 3 3 2 3 2 4 5 0 0 3 2 7 1 4 4 1 1 4 5 4 4 4 3 3 2 2 2 3 4 4 4
4 0 0 3 4 3 0 4 8 6 13 11 1 7 7 8 8 4 1 3 5 7 5 4 6 9 8 6 4 3 3 2 3 3 3 5 3 4 4 5 3 8 5 2 4 1 5 0 1 2 5 5 5 8 4 9 2 5 5 4 2 6 5 5 4 3 3 4 4 8 8 4 2 3 6 5 4 3 3 5 8 9 5 4 5 6 5 3
4 3 4 5 1 3 5 4 6 10 10 12 4 9 3 5 7 5 6 5 2 3 4 8 3 5 9 10 7 5 1 2 2 2 2 2 5 3 1 1 3 5 5 2 0 3 4 1 3 2 4 2 2 2 4 6 6 6 5 5 4 4 8 5 4 4 8 8 3 6 10 6 4 2 4 4 3 3 12 13 9 8 9 8 8 8 7 6
2 1 0 1 6 6 4 7 5 8 9 12 9 8 5 11 4 5 6 4 4 2 2 3 2 3 4 8 8 4 2 1 2 2 3 1 0 1 2 3 1 4 7 4 3 2 5 1 3 3 4 0 1 3 5 7 11 9 5 6 5 4 6 3 3 3 1 6 4 7 7 2 2 5 3 7 11 14 11 9 10 9 9 10 10 9 8 8
1 2 2 1 5 6 4 5 6 5 7 6 6 7 4 9 7 2 4 6 9 5 1 3 1 8 4 9 6 3 3 3 5 7 4 6 5 4 4 3 1 1 3 3 1 2 1 5 3 3 4 2 1 0 4 5 3 3 3 3 2 5 5 5 4 8 4 2 5 6 4 1 2 3 5 9 11 11 12 9 8 9 8 9 10 9 9 9
Wind_Direction
319 317 317 316 313 309 308 309 310 309 310 310 312 312 313 312 312 312 311 310 308 309 305 310 312 314 317 316 315 317 348 333 309 302 227 240 197 214 175 210 128 184 176 178 339 358 352 21 24 329 39 96 249 107 239 120 171 84 149 124 266 200 195 221 174 176 192 266 296 335 332 31 346 344 104 46 41 72 67 50 13 41 43 90 95 110 124 136
317 319 315 311 309 308 307 306 305 305 305 305 306 307 308 310 312 313 313 313 314 311 315 322 316 317 317 309 318 333 345 302 288 267 237 217 182 200 210 209 138 127 133 121 149 164 94 28 14 85 73 21 302 209 128 235 147 143 125 125 232 174 237 187 205 246 316 277 281 292 314 53 252 206 347 83 350 41 65 42 51 79 70 84 100 118 132 146
319 319 315 312 309 307 305 306 305 305 305 305 305 306 308 307 310 312 313 314 313 315 315 315 317 316 310 316 329 354 342 306 272 265 258 237 221 192 208 218 173 154 170 149 197 145 146 165 118 75 28 69 329 207 8 252 150 230 128 233 245 214 240 242 218 244 210 256 295 316 308 29 280 201 261 139 139 45 127 131 53 102 124 126 124 128 142 149
318 319 316 312 309 305 304 304 307 304 304 306 307 305 307 307 308 310 312 314 315 313 314 314 318 319 319 320 331 356 347 283 284 247 259 218 191 195 201 211 178 183 189 49 152 146 146 85 67 92 73 84 290 104 312 261 126 281 145 219 233 220 252 268 220 232 243 215 273 300 298 342 303 338 91 138 79 327 287 231 156 166 145 142 140 142 152 156
319 318 315 313 307 305 303 304 305 303 301 301 303 304 303 305 307 307 309 312 314 314 314 317 318 322 321 318 338 15 331 18 145 238 244 138 172 188 195 185 164 164 178 139 87 78 99 111 90 42 84 251 324 32 250 279 204 99 213 204 221 246 263 260 254 248 238 174 291 284 335 273 307 73 91 142 188 231 202 213 214 154 149 145 152 158 156 162
319 320 314 311 308 304 303 305 303 302 301 301 301 301 300 301 306 306 306 307 311 314 314 313 316 322 319 329 317 165 139 79 290 273 24 80 167 179 187 162 155 138 137 97 130 122 105 40 82 54 32 85 217 149 267 218 131 237 298 245 228 223 233 271 272 253 199 258 231 321 247 302 30 301 211 160 181 235 226 172 154 163 161 156 150 154 162 168
322 319 314 309 307 303 304 305 302 300 300 300 299 298 298 300 303 304 304 304 306 310 312 313 317 323 339 342 301 72 96 272 303 254 58 86 154 163 166 146 132 122 133 125 121 122 121 107 109 193 104 54 280 192 248 233 196 203 247 256 277 218 226 260 271 265 241 204 253 215 355 299 283 295 165 51 304 281 127 114 124 126 131 144 153 169 168 169
326 322 316 310 305 303 305 303 299 298 298 299 299 296 296 297 300 304 304 305 304 303 308 311 314 325 360 360 340 348 44 251 247 242 122 96 114 137 135 116 131 126 137 184 148 146 137 133 160 151 145 157 226 170 268 182 203 202 260 249 257 264 242 257 256 267 249 241 259 356 292 261 228 228 57 334 339 86 110 118 128 137 140 149 158 165 165 154
329 323 317 311 305 306 303 298 297 297 297 300 295 295 294 295 296 297 300 301 302 301 303 310 312 329 39 87 69 348 268 234 230 145 108 97 109 118 129 132 153 142 166 157 173 177 140 222 116 183 229 274 205 247 268 231 309 211 225 244 292 283 278 262 279 263 243 247 180 148 225 253 246 69 50 294 70 108 114 120 134 140 147 159 167 163 141 105
333 328 320 314 312 308 303 296 295 296 299 297 293 291 291 290 290 289 291 295 294 297 296 298 305 350 50 43 4 39 263 199 48 129 115 115 113 125 124 128 149 147 145 195 161 157 184 192 172 199 154 260 206 236 139 135 239 165 234 226 251 265 274 278 236 257 222 208 182 191 239 253 291 154 266 331 143 131 119 126 140 148 156 157 144 107 79 84
337 333 327 320 312 307 301 298 296 297 298 292 289 287 287 288 290 291 293 296 298 295 291 292 292 51 29 348 123 220 259 17 118 127 125 123 122 137 176 151 159 157 163 170 192 188 152 149 177 135 147 226 23 283 179 226 179 286 266 317 283 276 266 251 296 264 142 256 193 183 231 264 302 112 193 167 167 148 131 139 148 153 152 135 111 105 107 108
338 336 331 323 316 310 305 302 302 299 295 290 287 288 289 289 287 287 288 289 291 294 299 281 323 73 153 129 203 226 305 336 123 138 135 138 157 190 168 162 166 169 166 175 216 210 216 161 134 82 213 46 314 299 285 235 120 263 310 326 292 345 322 273 215 243 163 248 147 163 352 304 323 215 207 155 147 152 140 146 154 154 134 116 111 108 105 118
339 337 335 330 322 316 310 304 299 295 295 293 294 291 287 283 282 281 280 280 274 282 279 275 286 147 48 315 229 234 281 35 111 119 131 167 50 134 173 166 176 168 176 166 203 213 209 160 118 163 232 156 227 233 209 74 280 11 62 178 330 347 321 286 217 303 147 246 168 142 281 263 268 266 170 149 143 138 139 148 154 145 128 118 114 107 107 106
340 338 336 334 328 318 312 306 302 302 301 300 292 286 285 279 276 280 281 270 271 257 248 243 107 35 163 243 274 232 237 214 107 107 212 162 10 219 151 174 179 183 194 205 252 221 167 140 151 220 150 171 250 269 2 334 16 264 262 76 240 10 273 293 61 11 266 224 170 116 221 265 266 230 171 162 155 154 160 160 154 146 138 127 120 118 122 133
339 339 338 336 332 326 318 314 309 304 299 295 294 291 288 290 285 281 277 278 266 247 229 252 36 134 24 267 265 267 233 84 178 221 178 160 181 115 183 180 194 202 212 214 235 213 128 126 121 304 257 234 194 1 317 2 350 345 31 296 320 144 280 293 244 213 212 281 198 134 220 250 218 192 186 169 168 157 157 163 158 158 153 142 130 130 133 149
340 339 338 336 335 331 324 316 311 306 304 303 300 297 292 286 286 284 279 273 273 241 78 9 203 214 348 292 253 170 96 145 235 215 210 168 173 199 183 167 181 209 214 263 226 268 299 190 190 205 227 355 52 86 35 17 336 353 76 257 288 250 259 341 304 222 215 186 307 169 209 336 275 210 178 177 165 168 156 161 163 166 161 145 135 135 137 146
340 338 338 337 337 333 327 320 312 311 308 302 298 290 289 284 282 274 280 249 234 197 178 161 123 197 313 233 298 341 232 229 215 130 184 201 181 183 110 101 216 256 227 275 309 181 289 177 313 44 24 116 155 92 16 13 314 314 3 241 207 291 310 302 291 286 236 164 210 247 178 215 243 165 185 180 173 160 165 165 165 171 167 148 132 138 146 160
339 338 337 337 335 335 332 324 317 313 311 306 298 292 279 261 290 322 334 121 188 185 236 248 218 319 277 313 301 248 278 292 164 183 186 192 174 206 129 154 316 91 50 326 352 209 274 215 38 194 3 357 55 62 120 227 200 218 301 351 325 320 222 238 304 273 344 201 186 197 216 153 298 167 178 185 179 171 171 168 177 173 156 155 148 150 164 169
338 336 336 335 335 335 333 329 322 316 315 319 315 310 269 152 295 185 182 155 123 47 348 225 133 148 143 207 273 307 285 217 55 114 214 173 201 161 54 80 86 121 310 90 268 110 347 86 26 36 244 343 216 155 166 216 165 208 193 215 215 287 291 279 244 271 256 259 153 143 209 182 138 176 169 166 160 157 170 132 144 156 166 164 166 169 174 178
337 336 334 334 333 332 334 329 321 317 321 336 4 5 112 32 19 326 236 236 228 217 247 200 206 275 306 282 277 249 270 249 161 225 153 179 111 153 213 114 27 69 110 183 269 167 119 172 215 221 221 218 219 189 201 212 163 185 252 193 251 253 276 265 269 272 296 98 207 195 82 133 188 179 170 162 136 145 145 148 158 175 175 180 180 179 180 182
334 335 334 332 330 331 330 332 323 308 319 3 315 296 331 148 13 297 235 230 222 233 238 242 190 210 230 274 200 35 22 318 260 241 198 122 99 108 247 118 90 236 242 195 156 279 78 209 251 223 219 213 200 222 277 350 157 220 255 219 271 239 272 273 301 328 345 127 342 157 129 179 179 170 155 135 142 197 171 166 176 185 190 188 184 178 181 181
334 332 333 331 328 327 329 328 329 323 50 76 13 208 236 209 219 220 60 305 263 223 226 238 229 255 265 262 272 117 91 280 315 283 283 141 183 148 276 129 146 198 277 109 12 6 59 211 242 226 231 147 162 126 160 193 257 85 193 211 109 286 250 291 317 320 7 82 301 133 136 130 75 213 180 163 191 197 183 179 182 178 187 192 189 183 166 169
332 331 331 331 328 325 325 322 318 39 340 163 207 224 231 229 80 29 57 268 281 210 213 224 231 240 259 261 229 141 158 198 239 286 206 140 115 190 157 130 188 180 97 105 169 158 280 273 251 159 140 173 280 173 136 79 82 176 252 50 257 249 24 314 295 353 351 74 222 162 102 332 318 338 275 227 184 191 190 195 200 188 184 188 190 184 175 178
332 330 330 330 328 326 318 317 319 77 207 213 242 222 240 61 23 339 133 246 289 297 207 210 198 199 225 214 201 157 153 234 144 267 184 136 164 184 116 160 144 159 219 170 169 175 216 240 169 93 121 155 238 256 214 273 279 281 232 151 227 293 239 169 269 327 320 357 75 60 47 2 351 121 241 272 345 50 193 167 192 231 238 255 220 181 183 180
330 329 330 328 329 326 318 315 47 227 179 202 242 248 259 273 256 197 87 326 348 281 280 285 173 223 229 101 110 143 214 278 208 203 170 154 167 95 218 185 121 230 187 156 117 202 271 268 229 269 174 150 185 271 230 171 246 315 244 187 195 194 249 294 316 32 28 354 6 93 48 284 292 290 220 242 217 228 193 185 208 201 195 190 193 193 179 188
326 327 329 329 329 330 311 348 310 323 316 262 238 273 305 350 259 171 94 77 295 270 333 267 149 272 143 201 154 145 96 248 214 204 164 191 160 143 105 197 137 229 169 151 181 202 220 293 136 245 237 164 171 208 235 165 195 69 266 194 189 169 161 67 36 64 8 103 320 20 126 236 323 126 244 267 205 207 165 209 214 174 201 211 213 189 183 183
328 328 328 329 330 338 11 284 334 280 334 299 294 319 328 1 270 89 52 340 350 247 156 259 93 271 214 216 143 110 92 261 315 134 161 132 178 168 133 233 18 182 164 148 44 283 14 303 3 64 143 134 134 238 233 148 127 229 247 132 109 95 121 219 101 112 195 233 295 33 91 133 335 296 265 292 206 203 217 241 233 205 200 212 215 199 187 181
322 324 326 325 326 335 214 313 347 307 228 258 348 331 324 335 116 48 83 356 330 261 156 241 215 322 104 8 147 162 201 118 101 249 188 171 107 310 181 198 184 183 173 108 219 255 148 307 7 296 152 135 188 209 186 147 140 215 214 168 165 176 185 123 98 115 344 113 268 326 351 57 255 266 317 143 120 236 225 219 228 216 206 205 205 201 197 186
321 325 324 322 321 312 238 189 164 242 236 327 317 318 327 27 86 107 113 95 252 93 304 96 289 67 247 83 186 205 252 287 119 264 61 72 189 135 215 210 170 177 307 149 205 290 276 207 241 157 136 203 229 208 162 157 143 274 165 92 71 74 72 109 94 91 348 68 282 277 351 172 287 284 340 350 108 200 232 223 214 211 204 197 197 201 178 169
318 320 321 321 325 38 152 208 233 238 321 317 309 309 351 56 35 38 353 255 315 349 199 208 199 225 119 149 213 215 227 294 151 51 109 150 212 15 42 125 132 123 229 10 188 224 259 319 166 134 204 212 206 207 170 176 187 118 95 100 27 41 22 26 64 85 65 43 256 246 294 136 304 276 240 46 103 193 272 283 251 239 228 215 220 186 181 179
316 315 314 317 277 253 130 287 251 251 250 279 295 329 64 40 122 108 211 231 313 248 341 35 241 23 131 159 223 241 217 202 326 123 84 58 32 58 47 17 46 56 33 357 299 315 337 340 87 248 167 115 144 110 45 61 28 127 84 113 68 359 10 27 346 40 91 268 256 261 243 99 162 299 312 231 267 254 213 230 211 199 197 196 184 189 183 179
314 311 303 298 214 276 201 227 234 76 340 322 18 51 85 237 8 167 216 344 66 285 76 300 284 170 246 306 338 194 184 186 224 120 143 174 169 173 226 178 167 86 320 252 254 3 294 253 250 313 226 164 106 114 297 29 18 87 87 44 113 246 45 250 8 237 159 174 228 234 115 37 222 215 275 307 316 309 246 211 223 182 185 178 181 181 176 152
315 308 303 280 231 213 244 248 311 323 336 352 57 50 71 108 218 252 274 320 238 39 299 211 305 329 293 150 238 260 288 189 250 210 133 53 147 217 219 167 188 144 200 248 193 18 264 289 337 289 318 138 131 150 270 148 347 107 138 133 95 96 53 217 280 302 308 294 263 293 282 235 243 302 337 317 324 301 310 38 85 307 182 179 171 154 130 121
313 311 304 230 196 211 219 195 230 273 338 39 79 41 56 96 242 225 225 242 249 315 315 340 332 336 335 207 245 165 289 241 156 223 141 168 148 204 262 263 134 315 114 145 181 187 82 345 291 162 238 283 135 164 180 173 154 212 149 145 180 144 159 221 192 188 204 183 258 269 71 228 92 241 335 309 311 14 34 55 70 76 63 63 84 92 98 98
313 299 261 273 236 231 222 202 188 189 97 79 60 93 146 230 242 196 230 278 271 307 338 323 320 342 317 288 267 208 179 268 173 132 170 125 207 165 186 224 229 111 135 133 257 83 175 197 257 221 258 150 204 285 121 97 58 164 152 76 99 223 148 136 211 142 178 148 26 160 205 167 110 270 297 304 24 22 43 66 64 60 59 66 57 58 81 88
316 302 203 260 214 253 188 190 181 175 120 87 101 140 203 190 210 190 244 190 356 14 314 333 253 147 240 314 327 27 17 90 306 119 283 180 207 192 226 203 185 181 150 175 193 176 18 285 271 318 13 173 168 164 283 115 178 247 103 172 209 160 105 91 57 56 87 55 233 237 341 356 294 346 352 334 49 32 20 56 85 85 73 71 63 59 41 30
324 328 359 257 252 203 157 157 162 142 105 113 123 229 203 269 200 196 281 12 240 313 38 40 300 89 211 212 244 331 341 53 300 147 242 165 12 262 234 272 172 192 198 140 285 186 141 233 296 52 67 15 353 132 96 54 144 82 158 232 135 94 119 121 157 338 61 143 249 19 206 251 66 207 328 343 36 7 8 22 37 84 113 105 123 117 126 106
319 305 251 271 244 147 147 148 142 119 98 119 188 219 190 202 248 182 329 354 356 37 62 138 269 147 267 152 300 264 303 121 290 2 205 240 177 101 288 213 274 194 213 212 141 257 118 217 299 264 240 299 353 63 20 331 25 145 208 199 91 229 165 331 96 125 109 208 268 13 260 276 158 253 333 261 176 167 55 20 34 19 71 114 136 129 133 133
267 330 349 300 319 142 147 152 138 119 90 126 209 162 257 223 262 323 328 321 223 257 213 236 177 283 166 207 167 9 72 151 276 192 101 299 159 204 200 225 273 59 57 210 99 194 49 165 287 302 101 300 32 61 68 296 328 18 70 41 358 100 156 125 194 165 119 217 88 277 50 187 230 212 206 227 245 178 132 89 60 51 24 55 82 83 77 63
354 23 332 318 9 126 150 144 91 77 90 177 204 212 209 233 267 265 262 256 293 114 236 239 221 258 269 225 159 176 195 124 303 274 119 261 129 249 345 339 213 357 62 76 116 101 67 109 180 281 292 34 36 337 178 168 7 349 28 341 356 23 212 105 46 85 162 161 170 155 6 283 264 215 185 228 195 214 152 147 142 122 101 70 59 82 106 101
291 82 275 326 42 144 148 68 96 158 151 250 147 210 300 233 312 282 265 264 255 249 230 236 245 246 239 318 299 190 120 115 153 258 170 293 145 328 302 1 347 6 2 24 60 7 84 78 176 303 31 28 206 245 189 185 176 142 144 109 183 106 120 132 236 24 82 104 193 123 218 271 269 169 234 238 217 196 203 154 158 150 138 131 107 69 73 81
25 31 320 4 4 297 49 116 64 182 108 153 204 179 229 217 283 264 269 249 195 255 230 237 253 241 251 246 193 205 132 142 220 204 253 141 226 145 252 99 89 110 108 99 132 258 148 144 95 100 154 171 203 23 17 349 113 105 109 50 134 142 100 93 134 246 35 73 117 146 123 267 248 315 337 218 145 291 216 159 136 140 138 144 133 109 49 75
50 221 262 322 356 165 69 45 310 101 170 230 299 288 228 311 224 237 301 286 285 217 247 198 233 163 252 351 356 58 107 89 85 260 244 174 179 203 190 103 84 49 77 339 10 260 90 64 67 329 327 317 328 306 1 81 79 29 14 29 62 19 253 169 179 183 133 179 84 34 69 254 288 350 331 134 93 91 43 127 135 116 95 73 92 116 131 128
278 282 324 332 346 122 73 131 290 295 313 315 276 265 233 213 200 288 216 305 302 328 14 22 332 27 19 46 60 44 335 110 4 71 5 336 2 331 67 66 101 105 97 230 128 260 67 299 125 96 31 344 340 344 358 348 50 75 20 329 352 131 91 157 109 77 97 214 164 116 180 267 290 1 13 47 75 74 99 73 143 131 142 150 147 159 151 140
297 293 30 319 348 38 103 181 121 232 280 283 295 288 283 297 227 233 200 45 351 320 27 0 11 317 8 39 75 17 19 73 144 15 146 7 348 323 5 88 89 86 70 180 132 44 86 162 95 141 160 152 161 182 240 278 285 296 10 337 4 46 9 41 35 5 113 256 102 111 177 252 278 13 15 23 68 67 30 126 91 144 153 163 164 172 173 163
15 33 318 352 358 17 47 263 29 340 291 291 55 271 9 311 334 42 80 92 78 53 64 296 354 46 5 24 39 20 4 1 59 332 37 2 337 4 348 23 47 58 110 88 67 83 117 82 86 157 149 178 197 194 250 116 43 63 299 9 328 25 51 95 107 79 157 190 75 233 162 171 28 358 352 341 345 98 147 161 153 163 186 178 167 161 159 146
79 50 344 342 336 21 358 15 8 346 264 210 74 357 5 339 295 25 9 87 7 16 52 40 359 39 332 49 93 56 8 344 355 65 15 352 308 331 325 47 35 12 342 52 352 85 61 53 358 99 67 150 177 123 174 122 114 150 106 14 343 33 70 82 98 176 143 88 43 268 300 104 17 332 341 345 343 333 330 296 203 170 161 151 135 115 92 86
53 303 55 282 96 352 6 0 344 336 9 35 61 18 16 29 36 50 319 39 38 36 84 354 28 39 22 71 93 72 335 19 31 17 319 11 341 344 23 24 62 340 9 55 344 109 128 108 272 82 38 52 63 80 84 72 65 93 86 18 36 338 76 94 194 67 107 137 189 153 88 90 309 321 324 306 319 304 309 327 320 317 5 22 66 96 110 109
105 256 261 320 76 4 109 289 322 334 32 10 124 33 38 33 41 25 341 321 25 5 47 91 13 15 32 31 92 103 9 74 7 338 44 322 10 330 16 338 339 15 20 53 20 108 92 82 219 91 103 59 52 80 72 100 129 64 36 28 33 79 69 82 65 3 112 102 116 114 94 73 347 328 321 317 327 343 24 34 31 27 1 22 46 33 20 32
15 30 330 347 44 63 355 349 354 17 40 0 46 1 25 23 43 6 26 45 47 353 15 84 73 43 42 48 52 83 13 94 105 63 321 44 326 31 7 134 297 325 27 36 47 342 102 253 117 74 82 58 17 24 102 121 112 83 43 45 71 99 70 43 71 50 73 70 68 95 81 47 347 342 3 351 351 40 47 35 28 24 19 21 33 24 18 27
274 194 249 21 34 352 350 18 26 36 27 1 25 350 16 4 13 18 64 14 82 77 25 118 154 80 41 62 63 97 207 179 202 214 229 165 118 264 62 274 55 328 350 353 23 329 66 166 54 67 91 81 4 82 95 88 85 81 44 16 15 42 70 354 56 314 127 153 151 92 68 45 313 355 8 30 42 43 40 26 27 22 21 32 37 27 25 28
331 302 38 108 76 344 27 9 22 53 33 346 349 352 6 347 354 31 78 41 36 39 101 133 87 78 21 39 37 355 288 211 249 252 216 221 232 263 249 252 301 34 328 9 304 45 82 127 109 92 97 247 268 178 156 102 60 22 334 306 26 77 112 121 64 37 33 119 80 108 171 217 294 321 59 37 54 47 41 28 22 24 28 41 44 43 44 46